Regional Weather Roundup
Issued by NWS Mobile, AL

Home | Current Version | Previous Version | Text Only | Print | Product List | Glossary On
Versions: 1 2 3 4 5 6 7 8 9 10 11 12 13 14 15 16 17 18 19 20 21 22 23 24 25 26 27 28 29 30 31 32 33 34 35 36 37 38 39 40 41 42 43 44 45 46 47 48 49 50
000
ASUS44 KMOB 250216
RWRMOB
REGIONAL WEATHER ROUNDUP
NATIONAL WEATHER SERVICE MOBILE AL
900 PM CDT FRI APR 24 2015

ALZ061>064-250300-
COASTAL ALABAMA


CITY           SKY/WX    TMP DP  RH WIND       PRES   REMARKS
MOBILE REG APT CLOUDY    73  69  87 SE10      29.91R
BROOKLEY FIELD CLOUDY    73  69  87 SE7       29.91R
GULF SHORES    CLOUDY    73  71  93 SE9G16    29.90S

$$

ALZ051>060-250300-
INTERIOR SOUTHWEST AND SOUTH CENTRAL ALABAMA


CITY           SKY/WX    TMP DP  RH WIND       PRES   REMARKS
ANDALUSIA/OPP  MOCLDY    75  62  64 CALM      29.94R
EVERGREEN      PTCLDY    69  65  86 CALM      29.92F
FLORALA        MOCLDY    69  62  78 S5        29.95R
GREENVILLE     FAIR      71  60  68 SE6       29.90F

$$

FLZ001>006-250300-
WESTERN FLORIDA PANHANDLE


CITY           SKY/WX    TMP DP  RH WIND       PRES   REMARKS
CRESTVIEW      MOCLDY    69  63  81 E3        29.94S
DESTIN         CLOUDY    75  68  78 SE8       29.92F
DUKE FIELD     MOCLDY    71  64  80 SE2       29.92S
MARY ESTHER    CLOUDY    74  67  80 SE10      29.91S
MILTON         CLOUDY    72  67  84 SE6       29.92R
PENSACOLA      CLOUDY    73  69  87 S9        29.90S
NAS PENSACOLA  CLOUDY    74  71  91 S14       29.90R
VALPARAISO     MOCLDY    73  67  81 SE9       29.92S

$$

...MARINE OBSERVATIONS...

STATION/POSITION TIME  SKY/WX   TEMP    WIND        PRES    VSBY
                                AIR SEA DIR/SP/G
                 (UTC)          (F)     (DEG/KT/KT) (MB)    (MI)
PASCAGOULA       0100            75     100/ 10/ 14 1011.3F
PETIT BOIS ISL   0100            78     130/ 12/ 18 1011.4F
E DAUPHIN ISLAND 0200            75     110/ 13/ 16 1011.7R
MIDDLE BAY LIGHT 0100            72     130/ 17     1010.5S
USCG MOBILE BAY  0100            73 73  130/  5/  6 1010.9F
STATE DOCKS      0100            73 70              1011.8F
MEAHER PARK      0200            73     140/  6     1012.5R
FORT MORGAN      0100            74     140/ 15/ 17 1011.4F
12 S ORANGE BCH  0150            74 73  120/ 12/ 14 1011.4F
WVE H/P(F/S)=  2/ 6

PENSACOLA BAY    0100            76 76  170/  7/ 11 1012.7F
64 S DAUPHIN ISL 0150            77 77  120/ 14/ 16 1013.4R
WVE H/P(F/S)=  3/ 5

67 S FORT MORGAN 0130            76                 1012.9
115 SE PENSACOLA 0150            76 76  140/ 10/ 12 1013.7R
WVE H/P(F/S)=  2/ 7

MID GULF/42001   0150            80 81  150/ 16/ 19 1011.7R
WVE H/P(F/S)=  3/ 6

EAST GULF/42003  0150            81 81  130/  8/ 10 1013.9R
WVE H/P(F/S)=  1/ 4


$$

...NEARBY LOCATIONS

CITY           SKY/WX    TMP DP  RH WIND       PRES   REMARKS
GULFPORT       LGT RAIN  75  72  90 SE10      29.87R
BILOXI         CLOUDY    75  75 100 SE5       29.88R
PASCAGOULA     CLOUDY    74  71  91 SE7       29.89R
HATTIESBURG    CLOUDY    74  68  81 SE8       29.87F
LAUREL         CLOUDY    72  64  78 SE7       29.87F
MERIDIAN       MOCLDY    68  60  75 SE3       29.87F
MERIDIAN NAS   CLOUDY    67  58  72 E5        29.88F
MONTGOMERY     MOCLDY    70  58  65 E5        29.92F
MAXWELL AFB    CLOUDY    69  60  73 E2        29.91F
TROY           MOCLDY    69  63  81 CALM      29.94S
FORT RUCKER    PTCLDY    69  63  81 CALM      29.92S
DALEVILLE      MOCLDY    72  61  68 S5        29.94S
DOTHAN         MOCLDY    70  62  76 CALM      29.98R

$$

...OTHER SURROUNDING LOCATIONS...

CITY           SKY/WX    TMP DP  RH WIND       PRES   REMARKS
BIRMINGHAM     CLOUDY    69  47  45 VRB3      29.93F
TUSCALOOSA     CLOUDY    70  54  56 SE7       29.90S
COLUMBUS GA    CLOUDY    70  54  56 CALM      29.96R
PANAMA CITY    NOT AVBL
TALLAHASSEE    CLOUDY    74  60  61 CALM      29.95R
BATON ROUGE    PTCLDY    72  68  87 SE8       29.80F
NEW ORLEANS    PTCLDY    73  68  84 SE7       29.85R
SLIDELL        MOCLDY    73  71  93 SE6       29.84F
JACKSON        CLOUDY    70  64  81 SE10      29.80F
MCCOMB         CLOUDY    71  70  96 SE12      29.82F

$$

...SURROUNDING MARINE OBSERVATIONS...

STATION/POSITION TIME  SKY/WX   TEMP    WIND        PRES    VSBY
                                AIR SEA DIR/SP/G
                 (UTC)          (F)     (DEG/KT/KT) (MB)    (MI)
WAVELAND         0100            75 75  120/  9/ 11 1011.3R
PASCAGOULA RGN A 0100            75     110/ 11/ 13 1011.0F
PASCAGOULA PORT  0100               76                N/A
GRAND ISLE       0100            77 78  110/  6/ 11 1011.0F
SOUTHWEST PASS   0200            79     150/ 14/ 15 1011.7R
PILOT STATION E  0100            77 66  140/  7/  9 1011.8F
SHELL BEACH      0100            69 76  180/ 15/ 22 1010.4R
PANAMA CITY      0100            76 78  150/  7/  9 1013.2R
APALACHICOLA     0100            75 73  200/  5/  7 1014.2R
TYNDALL TOWER C  0200            73     170/ 10/ 10 1013.4F
S APLCHCLA/42036 0150            77 76  170/  8/  8 1014.1R
WVE H/P(F/S)=  2/ 6


$$



USA.gov is the U.S. government's official web portal to all federal, state and local government web resources and services.